Time,TemperatureF,DewpointF,PressureIn,WindDirection,WindDirectionDegrees,WindSpeedMPH,WindSpeedGustMPH,Humidity,HourlyPrecipIn,Conditions,Clouds,dailyrainin,SoftwareType,DateUTC
2013-08-01 00:00:00,68.2,64.8,29.97,WNW,289,0.0,0.0,89,0.00,RA,,0.00,WeatherDisplay:10.37,2013-08-01 04:00:00,
2013-08-01 00:01:00,68.2,64.8,29.97,WNW,289,0.0,0.0,89,0.00,RA,,0.00,WeatherDisplay:10.37,2013-08-01 04:01:00,
2013-08-01 00:02:00,68.2,64.8,29.97,WNW,289,0.0,0.0,89,0.00,RA,,0.00,WeatherDisplay:10.37,2013-08-01 04:02:00,
2013-08-01 00:03:00,68.2,64.8,29.97,WNW,289,0.0,0.0,89,0.00,RA,,0.00,WeatherDisplay:10.37,2013-08-01 04:03:00,
2013-08-01 00:08:00,67.8,64.5,29.97,WNW,289,0.0,0.0,89,0.00,RA,,0.00,WeatherDisplay:10.37,2013-08-01 04:08:00,
2013-08-01 00:13:00,67.6,64.0,29.98,SW,222,0.0,0.0,88,0.00,CLR,,0.00,WeatherDisplay:10.37,2013-08-01 04:13:00,
2013-08-01 00:18:00,67.6,64.0,29.98,WSW,245,0.0,0.0,88,0.00,CLR,,0.00,WeatherDisplay:10.37,2013-08-01 04:18:00,
2013-08-01 00:23:00,67.3,63.9,29.98,West,267,0.0,0.0,89,0.00,CLR,,0.00,WeatherDisplay:10.37,2013-08-01 04:23:00,
2013-08-01 00:28:00,67.3,63.9,29.98,West,267,0.0,0.0,89,0.00,CLR,,0.00,WeatherDisplay:10.37,2013-08-01 04:28:00,
2013-08-01 00:33:00,67.3,63.9,29.98,WNW,289,0.0,0.0,89,0.00,CLR,,0.00,WeatherDisplay:10.37,2013-08-01 04:33:00,
2013-08-01 00:38:00,67.3,63.9,29.97,WNW,289,0.0,0.0,89,0.00,CLR,,0.00,WeatherDisplay:10.37,2013-08-01 04:38:00,
2013-08-01 00:43:00,67.1,63.7,29.97,WNW,289,0.0,0.0,89,0.00,CLR,,0.00,WeatherDisplay:10.37,2013-08-01 04:43:00,
2013-08-01 00:48:00,67.1,63.7,29.97,WNW,289,0.0,0.0,89,0.00,CLR,,0.00,WeatherDisplay:10.37,2013-08-01 04:48:00,
2013-08-01 00:53:00,66.7,63.4,29.98,WNW,289,0.0,0.0,89,0.00,CLR,,0.00,WeatherDisplay:10.37,2013-08-01 04:53:00,
2013-08-01 00:58:00,66.7,63.4,29.98,WNW,289,0.0,0.0,89,0.00,CLR,,0.00,WeatherDisplay:10.37,2013-08-01 04:58:00,
2013-08-01 01:03:00,66.7,63.4,29.98,WNW,289,0.0,0.0,89,0.00,CLR,,0.00,WeatherDisplay:10.37,2013-08-01 05:03:00,
2013-08-01 01:08:00,66.0,62.7,29.97,WNW,289,0.0,0.0,89,0.00,CLR,,0.00,WeatherDisplay:10.37,2013-08-01 05:08:00,
2013-08-01 01:13:00,66.0,62.7,29.97,WNW,289,0.0,0.0,89,0.00,CLR,,0.00,WeatherDisplay:10.37,2013-08-01 05:13:00,
2013-08-01 01:18:00,66.0,62.7,29.97,WNW,289,0.0,0.0,89,0.00,CLR,,0.00,WeatherDisplay:10.37,2013-08-01 05:18:00,
2013-08-01 01:23:00,65.8,62.5,29.97,WNW,289,0.0,0.0,89,0.00,CLR,,0.00,WeatherDisplay:10.37,2013-08-01 05:23:00,
2013-08-01 01:28:00,65.8,62.5,29.97,WNW,289,0.0,0.0,89,0.00,CLR,,0.00,WeatherDisplay:10.37,2013-08-01 05:28:00,
2013-08-01 01:33:00,65.8,62.5,29.97,WNW,289,0.0,0.0,89,0.00,CLR,,0.00,WeatherDisplay:10.37,2013-08-01 05:33:00,
2013-08-01 01:38:00,65.8,62.5,29.97,WNW,289,0.0,0.0,89,0.00,CLR,,0.00,WeatherDisplay:10.37,2013-08-01 05:38:00,
2013-08-01 01:43:00,65.8,62.5,29.96,WNW,289,0.0,0.0,89,0.00,CLR,,0.00,WeatherDisplay:10.37,2013-08-01 05:43:00,
2013-08-01 01:48:00,65.5,62.2,29.96,WNW,289,0.0,0.0,89,0.00,CLR,,0.00,WeatherDisplay:10.37,2013-08-01 05:48:00,
2013-08-01 01:53:00,65.5,62.2,29.96,WNW,289,0.0,0.0,89,0.00,CLR,,0.00,WeatherDisplay:10.37,2013-08-01 05:53:00,
2013-08-01 01:58:00,65.5,62.2,29.96,WNW,289,0.0,0.0,89,0.00,CLR,,0.00,WeatherDisplay:10.37,2013-08-01 05:58:00,
2013-08-01 02:03:00,65.5,62.2,29.96,WNW,289,0.0,0.0,89,0.00,CLR,,0.00,WeatherDisplay:10.37,2013-08-01 06:03:00,
2013-08-01 02:08:00,65.1,61.8,29.96,WNW,289,0.0,0.0,89,0.00,CLR,,0.00,WeatherDisplay:10.37,2013-08-01 06:08:00,
2013-08-01 02:13:00,65.1,61.8,29.96,WNW,289,0.0,0.0,89,0.00,CLR,,0.00,WeatherDisplay:10.37,2013-08-01 06:13:00,
2013-08-01 02:18:00,65.1,61.8,29.96,WNW,289,0.0,0.0,89,0.00,CLR,,0.00,WeatherDisplay:10.37,2013-08-01 06:18:00,
2013-08-01 02:23:00,64.9,61.6,29.96,WNW,289,0.0,0.0,89,0.00,CLR,,0.00,WeatherDisplay:10.37,2013-08-01 06:23:00,
2013-08-01 02:28:00,64.9,61.6,29.96,West,267,0.0,0.0,89,0.00,CLR,,0.00,WeatherDisplay:10.37,2013-08-01 06:28:00,
2013-08-01 02:33:00,64.8,61.4,29.96,West,267,0.0,0.0,89,0.00,CLR,,0.00,WeatherDisplay:10.37,2013-08-01 06:33:00,
2013-08-01 02:38:00,64.6,61.3,29.95,West,267,0.0,0.0,89,0.00,CLR,,0.00,WeatherDisplay:10.37,2013-08-01 06:38:00,
2013-08-01 02:43:00,64.8,61.4,29.95,West,267,0.0,0.0,89,0.00,CLR,,0.00,WeatherDisplay:10.37,2013-08-01 06:43:00,
2013-08-01 02:48:00,64.8,61.4,29.95,West,267,0.0,0.0,89,0.00,CLR,,0.00,WeatherDisplay:10.37,2013-08-01 06:48:00,
2013-08-01 02:53:00,64.6,61.3,29.95,WSW,245,0.0,0.0,89,0.00,CLR,,0.00,WeatherDisplay:10.37,2013-08-01 06:53:00,
2013-08-01 02:58:00,64.4,61.1,29.95,West,267,0.0,0.0,89,0.00,CLR,,0.00,WeatherDisplay:10.37,2013-08-01 06:58:00,
2013-08-01 03:03:00,64.4,61.1,29.95,WNW,289,0.0,0.0,89,0.00,CLR,,0.00,WeatherDisplay:10.37,2013-08-01 07:03:00,
2013-08-01 03:08:00,64.6,61.3,29.95,West,267,0.0,0.0,89,0.00,CLR,,0.00,WeatherDisplay:10.37,2013-08-01 07:08:00,
2013-08-01 03:13:00,64.2,60.9,29.95,WSW,245,0.0,0.0,89,0.00,CLR,,0.00,WeatherDisplay:10.37,2013-08-01 07:13:00,
2013-08-01 03:18:00,64.2,60.9,29.95,WSW,245,0.0,0.0,89,0.00,CLR,,0.00,WeatherDisplay:10.37,2013-08-01 07:18:00,
2013-08-01 03:23:00,64.4,61.4,29.95,West,267,0.4,1.1,90,0.00,CLR,,0.00,WeatherDisplay:10.37,2013-08-01 07:23:00,
2013-08-01 03:28:00,64.8,61.8,29.95,West,267,0.0,0.0,90,0.00,CLR,,0.00,WeatherDisplay:10.37,2013-08-01 07:28:00,
2013-08-01 03:33:00,65.1,62.1,29.95,WNW,289,1.8,2.3,90,0.00,CLR,,0.00,WeatherDisplay:10.37,2013-08-01 07:33:00,
2013-08-01 03:38:00,65.3,62.3,29.95,WSW,245,0.0,0.0,90,0.00,CLR,,0.00,WeatherDisplay:10.37,2013-08-01 07:38:00,
2013-08-01 03:43:00,65.5,62.5,29.95,WSW,245,2.7,3.5,90,0.00,CLR,,0.00,WeatherDisplay:10.37,2013-08-01 07:43:00,
2013-08-01 03:48:00,65.5,62.5,29.95,West,267,0.0,0.0,90,0.00,CLR,,0.00,WeatherDisplay:10.37,2013-08-01 07:48:00,
2013-08-01 03:54:00,65.7,62.6,29.95,West,267,0.1,2.3,90,0.00,CLR,,0.00,WeatherDisplay:10.37,2013-08-01 07:54:00,
2013-08-01 03:59:00,65.7,62.6,29.95,West,267,2.0,2.3,90,0.00,CLR,,0.00,WeatherDisplay:10.37,2013-08-01 07:59:00,
2013-08-01 04:04:00,65.8,62.8,29.95,West,267,0.0,0.0,90,0.00,CLR,,0.00,WeatherDisplay:10.37,2013-08-01 08:04:00,
2013-08-01 04:09:00,65.8,62.8,29.95,West,267,0.0,0.0,90,0.00,CLR,,0.00,WeatherDisplay:10.37,2013-08-01 08:09:00,
2013-08-01 04:14:00,65.8,62.8,29.95,West,267,0.1,1.6,90,0.00,CLR,,0.00,WeatherDisplay:10.37,2013-08-01 08:14:00,
2013-08-01 04:20:00,65.8,62.8,29.95,West,267,0.0,0.0,90,0.00,CLR,,0.00,WeatherDisplay:10.37,2013-08-01 08:20:00,
2013-08-01 04:25:00,65.8,62.8,29.95,West,267,1.1,1.3,90,0.00,CLR,,0.00,WeatherDisplay:10.37,2013-08-01 08:25:00,
2013-08-01 04:32:00,66.0,63.0,29.95,NW,312,2.0,2.5,90,0.00,CLR,,0.00,WeatherDisplay:10.37,2013-08-01 08:32:00,
2013-08-01 04:37:00,66.0,63.0,29.95,WNW,289,1.8,2.3,90,0.00,CLR,,0.00,WeatherDisplay:10.37,2013-08-01 08:37:00,
2013-08-01 04:42:00,66.0,63.0,29.95,WSW,245,2.5,3.5,90,0.00,CLR,,0.00,WeatherDisplay:10.37,2013-08-01 08:42:00,
2013-08-01 04:47:00,66.2,63.2,29.95,West,267,3.4,3.5,90,0.00,CLR,,0.00,WeatherDisplay:10.37,2013-08-01 08:47:00,
2013-08-01 04:53:00,66.0,63.0,29.95,West,267,0.9,1.6,90,0.00,CLR,,0.00,WeatherDisplay:10.37,2013-08-01 08:53:00,
2013-08-01 05:00:00,66.0,63.0,29.95,WNW,289,3.1,4.6,90,0.00,CLR,,0.00,WeatherDisplay:10.37,2013-08-01 09:00:00,
2013-08-01 05:05:00,66.2,63.5,29.95,West,267,2.5,4.0,91,0.00,CLR,,0.00,WeatherDisplay:10.37,2013-08-01 09:05:00,
2013-08-01 05:11:00,66.2,63.5,29.95,West,267,3.0,4.6,91,0.00,CLR,,0.00,WeatherDisplay:10.37,2013-08-01 09:11:00,
2013-08-01 05:17:00,66.4,63.7,29.94,SW,222,0.0,1.6,91,0.00,CLR,,0.00,WeatherDisplay:10.37,2013-08-01 09:17:00,
2013-08-01 05:22:00,66.2,63.5,29.95,West,267,0.1,1.6,91,0.00,CLR,,0.00,WeatherDisplay:10.37,2013-08-01 09:22:00,
2013-08-01 05:28:00,66.2,63.5,29.95,SW,222,0.0,0.0,91,0.00,CLR,,0.00,WeatherDisplay:10.37,2013-08-01 09:28:00,
2013-08-01 05:34:00,66.2,63.5,29.95,West,267,0.0,0.0,91,0.00,CLR,,0.00,WeatherDisplay:10.37,2013-08-01 09:34:00,
2013-08-01 05:39:00,66.0,63.3,29.95,NW,312,0.0,0.0,91,0.00,CLR,,0.00,WeatherDisplay:10.37,2013-08-01 09:39:00,
2013-08-01 05:44:00,66.0,63.3,29.95,WNW,295,1.0,0.0,91,0.00,CLR,,0.00,WeatherDisplay:10.37,2013-08-01 09:44:00,
2013-08-01 05:50:00,66.0,63.0,29.95,West,267,0.0,0.0,90,0.00,CLR,,0.00,WeatherDisplay:10.37,2013-08-01 09:50:00,
2013-08-01 05:55:00,66.0,63.0,29.95,NW,312,1.0,1.6,90,0.00,CLR,,0.00,WeatherDisplay:10.37,2013-08-01 09:55:00,
2013-08-01 06:01:00,66.0,63.0,29.95,WNW,289,0.0,0.0,90,0.00,CLR,,0.00,WeatherDisplay:10.37,2013-08-01 10:01:00,
2013-08-01 06:07:00,66.0,63.0,29.95,West,267,0.0,0.0,90,0.00,CLR,,0.00,WeatherDisplay:10.37,2013-08-01 10:07:00,
2013-08-01 06:12:00,66.0,63.0,29.95,West,267,0.0,0.0,90,0.00,CLR,,0.00,WeatherDisplay:10.37,2013-08-01 10:12:00,
2013-08-01 06:17:00,65.8,62.8,29.95,West,267,0.0,0.0,90,0.00,CLR,,0.00,WeatherDisplay:10.37,2013-08-01 10:17:00,
2013-08-01 06:23:00,65.8,62.8,29.96,West,267,0.0,0.0,90,0.00,CLR,,0.00,WeatherDisplay:10.37,2013-08-01 10:23:00,
2013-08-01 06:28:00,65.7,62.6,29.96,SW,222,0.0,0.0,90,0.00,CLR,,0.00,WeatherDisplay:10.37,2013-08-01 10:28:00,
2013-08-01 06:34:00,65.5,62.5,29.97,SW,222,0.0,0.0,90,0.00,CLR,,0.00,WeatherDisplay:10.37,2013-08-01 10:34:00,
2013-08-01 06:39:00,65.1,62.1,29.96,West,267,0.0,0.0,90,0.00,CLR,,0.00,WeatherDisplay:10.37,2013-08-01 10:39:00,
2013-08-01 06:44:00,65.1,62.1,29.97,NW,312,0.0,0.0,90,0.00,CLR,,0.00,WeatherDisplay:10.37,2013-08-01 10:44:00,
2013-08-01 06:49:00,65.5,62.5,29.97,WNW,289,1.1,1.1,90,0.00,CLR,,0.00,WeatherDisplay:10.37,2013-08-01 10:49:00,
2013-08-01 06:54:00,65.6,62.6,29.97,WNW,285,0.0,0.0,90,0.00,CLR,,0.00,WeatherDisplay:10.37,2013-08-01 10:54:00,
2013-08-01 06:59:00,66.0,63.0,29.97,NW,312,2.2,2.3,90,0.00,CLR,,0.00,WeatherDisplay:10.37,2013-08-01 10:59:00,
2013-08-01 07:04:00,66.2,63.5,29.97,West,267,0.0,3.5,91,0.00,CLR,,0.00,WeatherDisplay:10.37,2013-08-01 11:04:00,
2013-08-01 07:10:00,66.6,63.9,29.98,NW,312,4.8,4.8,91,0.00,CLR,,0.00,WeatherDisplay:10.37,2013-08-01 11:10:00,
2013-08-01 07:16:00,66.9,64.2,29.98,WNW,289,3.3,4.0,91,0.00,CLR,,0.00,WeatherDisplay:10.37,2013-08-01 11:16:00,
2013-08-01 07:21:00,66.9,64.2,29.98,NW,312,0.0,0.0,91,0.00,CLR,,0.00,WeatherDisplay:10.37,2013-08-01 11:21:00,
2013-08-01 07:26:00,67.3,64.6,29.98,North,357,1.3,2.3,91,0.00,CLR,,0.00,WeatherDisplay:10.37,2013-08-01 11:26:00,
2013-08-01 07:32:00,67.3,64.6,29.98,West,267,0.0,3.5,91,0.00,CLR,,0.00,WeatherDisplay:10.37,2013-08-01 11:32:00,
2013-08-01 07:38:00,67.5,64.7,29.98,NNW,335,1.3,1.3,91,0.00,CLR,,0.00,WeatherDisplay:10.37,2013-08-01 11:38:00,
2013-08-01 07:43:00,67.6,64.9,29.98,West,267,1.3,0.0,91,0.00,CLR,,0.00,WeatherDisplay:10.37,2013-08-01 11:43:00,
2013-08-01 07:48:00,67.6,64.9,29.98,West,267,3.0,0.0,91,0.00,CLR,,0.00,WeatherDisplay:10.37,2013-08-01 11:48:00,
2013-08-01 07:53:00,67.6,64.9,29.98,WSW,245,0.0,0.0,91,0.00,CLR,,0.00,WeatherDisplay:10.37,2013-08-01 11:53:00,
2013-08-01 07:58:00,67.6,64.9,29.98,West,267,2.5,2.5,91,0.00,CLR,,0.00,WeatherDisplay:10.37,2013-08-01 11:58:00,
2013-08-01 08:03:00,67.8,65.1,29.98,West,267,2.5,0.0,91,0.00,CLR,,0.00,WeatherDisplay:10.37,2013-08-01 12:03:00,
2013-08-01 08:08:00,67.6,64.9,29.98,NW,312,0.1,3.5,91,0.00,OVC,,0.00,WeatherDisplay:10.37,2013-08-01 12:08:00,
2013-08-01 08:14:00,67.8,65.1,29.98,West,267,5.8,5.8,91,0.00,OVC,,0.00,WeatherDisplay:10.37,2013-08-01 12:14:00,
2013-08-01 08:19:00,67.8,65.1,29.98,NNW,335,2.9,4.0,91,0.00,OVC,,0.00,WeatherDisplay:10.37,2013-08-01 12:19:00,
2013-08-01 08:24:00,67.8,65.1,29.98,WNW,294,1.0,0.0,91,0.00,OVC,,0.00,WeatherDisplay:10.37,2013-08-01 12:24:00,
2013-08-01 08:30:00,67.8,65.1,29.98,WNW,288,1.0,0.0,91,0.00,OVC,,0.00,WeatherDisplay:10.37,2013-08-01 12:30:00,
2013-08-01 08:35:00,68.2,65.8,29.98,NW,312,1.8,2.3,92,0.00,OVC,,0.00,WeatherDisplay:10.37,2013-08-01 12:35:00,
2013-08-01 08:40:00,68.2,65.8,29.98,North,357,4.9,4.9,92,0.00,OVC,,0.00,WeatherDisplay:10.37,2013-08-01 12:40:00,
2013-08-01 08:46:00,68.4,65.9,29.99,NNW,335,2.9,6.9,92,0.00,OVC,,0.00,WeatherDisplay:10.37,2013-08-01 12:46:00,
2013-08-01 08:51:00,68.4,65.9,29.99,NNW,335,2.3,3.5,92,0.00,OVC,,0.00,WeatherDisplay:10.37,2013-08-01 12:51:00,
2013-08-01 08:57:00,68.5,66.1,29.99,NNW,335,6.9,6.9,92,0.00,OVC,,0.00,WeatherDisplay:10.37,2013-08-01 12:57:00,
2013-08-01 09:03:00,68.5,66.1,29.99,NNW,335,1.1,4.0,92,0.00,OVC,,0.00,WeatherDisplay:10.37,2013-08-01 13:03:00,
2013-08-01 09:09:00,68.7,66.3,30.00,NW,312,2.9,3.5,92,0.00,OVC,,0.00,WeatherDisplay:10.37,2013-08-01 13:09:00,
2013-08-01 09:14:00,68.9,66.5,29.99,NNW,335,3.6,3.6,92,0.00,OVC,,0.00,WeatherDisplay:10.37,2013-08-01 13:14:00,
2013-08-01 09:19:00,69.1,66.7,29.99,NW,312,5.4,6.0,92,0.00,OVC,,0.00,WeatherDisplay:10.37,2013-08-01 13:19:00,
2013-08-01 09:26:00,69.3,66.5,29.99,NNW,335,5.4,8.1,91,0.00,OVC,,0.00,WeatherDisplay:10.37,2013-08-01 13:26:00,
2013-08-01 09:32:00,69.3,66.5,29.99,NNW,335,3.6,3.8,91,0.00,OVC,,0.00,WeatherDisplay:10.37,2013-08-01 13:32:00,
2013-08-01 09:37:00,69.3,66.5,30.00,WNW,289,2.0,2.3,91,0.00,OVC,,0.00,WeatherDisplay:10.37,2013-08-01 13:37:00,
2013-08-01 09:42:00,69.3,66.5,29.99,NNW,335,2.6,2.9,91,0.00,OVC,,0.00,WeatherDisplay:10.37,2013-08-01 13:42:00,
2013-08-01 09:48:00,69.4,66.7,29.99,NNW,335,1.5,3.5,91,0.00,OVC,,0.00,WeatherDisplay:10.37,2013-08-01 13:48:00,
2013-08-01 09:53:00,69.6,66.6,29.99,NW,312,6.0,6.9,90,0.00,OVC,,0.00,WeatherDisplay:10.37,2013-08-01 13:53:00,
2013-08-01 09:59:00,69.8,66.7,29.99,NW,312,2.9,8.5,90,0.00,OVC,,0.00,WeatherDisplay:10.37,2013-08-01 13:59:00,
2013-08-01 10:04:00,69.8,66.7,30.00,NW,312,1.3,1.3,90,0.00,OVC,,0.00,WeatherDisplay:10.37,2013-08-01 14:04:00,
2013-08-01 10:10:00,69.8,66.7,30.00,NNW,330,3.0,0.0,90,0.00,BKN,,0.00,WeatherDisplay:10.37,2013-08-01 14:10:00,
2013-08-01 10:15:00,69.8,66.4,30.00,NW,312,4.9,4.9,89,0.00,BKN,,0.00,WeatherDisplay:10.37,2013-08-01 14:15:00,
2013-08-01 10:22:00,70.0,66.6,30.00,NE,42,3.8,3.8,89,0.00,BKN,,0.00,WeatherDisplay:10.37,2013-08-01 14:22:00,
2013-08-01 10:28:00,70.3,66.9,30.00,North,357,4.2,4.6,89,0.00,BKN,,0.00,WeatherDisplay:10.37,2013-08-01 14:28:00,
2013-08-01 10:33:00,70.7,67.3,30.00,NNE,19,3.1,3.5,89,0.00,BKN,,0.00,WeatherDisplay:10.37,2013-08-01 14:33:00,
2013-08-01 10:38:00,70.7,67.3,30.00,NNW,335,4.7,6.9,89,0.00,BKN,,0.00,WeatherDisplay:10.37,2013-08-01 14:38:00,
2013-08-01 10:43:00,73.6,69.1,30.00,SSE,155,1.3,2.3,86,0.00,BKN,,0.00,WeatherDisplay:10.37,2013-08-01 14:43:00,
2013-08-01 10:48:00,73.9,68.8,30.00,NNW,335,6.3,6.3,84,0.00,BKN,,0.00,WeatherDisplay:10.37,2013-08-01 14:48:00,
2013-08-01 10:53:00,73.6,67.7,30.01,NW,312,3.4,5.8,82,0.00,BKN,,0.00,WeatherDisplay:10.37,2013-08-01 14:53:00,
2013-08-01 10:58:00,73.9,67.7,30.01,NW,312,5.1,7.4,81,0.00,BKN,,0.00,WeatherDisplay:10.37,2013-08-01 14:58:00,
2013-08-01 11:03:00,73.9,67.4,30.01,WNW,289,2.9,3.5,80,0.00,BKN,,0.00,WeatherDisplay:10.37,2013-08-01 15:03:00,
2013-08-01 11:09:00,73.4,66.9,30.01,NW,312,3.1,3.5,80,0.00,BKN,,0.00,WeatherDisplay:10.37,2013-08-01 15:09:00,
2013-08-01 11:15:00,73.2,66.7,30.01,WNW,289,5.5,5.8,80,0.00,BKN,,0.00,WeatherDisplay:10.37,2013-08-01 15:15:00,
2013-08-01 11:20:00,73.2,66.7,30.01,NW,312,1.3,1.3,80,0.00,BKN,,0.00,WeatherDisplay:10.37,2013-08-01 15:20:00,
2013-08-01 11:26:00,73.4,66.9,30.01,NNW,335,3.8,4.6,80,0.00,BKN,,0.00,WeatherDisplay:10.37,2013-08-01 15:26:00,
2013-08-01 11:31:00,74.1,67.2,30.02,NW,312,4.5,4.6,79,0.00,BKN,,0.00,WeatherDisplay:10.37,2013-08-01 15:31:00,
2013-08-01 11:37:00,74.5,67.2,30.01,West,267,3.1,4.6,78,0.00,BKN,,0.00,WeatherDisplay:10.37,2013-08-01 15:37:00,
2013-08-01 11:43:00,75.9,68.2,30.02,NW,312,3.4,4.6,77,0.00,BKN,,0.00,WeatherDisplay:10.37,2013-08-01 15:43:00,
2013-08-01 11:48:00,76.8,69.1,30.02,WNW,289,4.5,4.6,77,0.00,BKN,,0.00,WeatherDisplay:10.37,2013-08-01 15:48:00,
2013-08-01 11:54:00,76.8,67.9,30.02,NW,317,2.0,0.0,74,0.00,BKN,,0.00,WeatherDisplay:10.37,2013-08-01 15:54:00,
2013-08-01 12:00:00,75.9,66.6,30.02,North,357,8.0,9.2,73,0.00,BKN,,0.00,WeatherDisplay:10.37,2013-08-01 16:00:00,
2013-08-01 12:05:00,76.8,67.1,30.02,WSW,245,11.8,11.8,72,0.00,BKN,,0.00,WeatherDisplay:10.37,2013-08-01 16:05:00,
2013-08-01 12:11:00,77.9,68.5,30.02,WSW,245,0.9,1.1,73,0.00,SCT,,0.00,WeatherDisplay:10.37,2013-08-01 16:11:00,
2013-08-01 12:17:00,78.1,67.9,30.01,NNW,335,3.4,5.1,71,0.00,SCT,,0.00,WeatherDisplay:10.37,2013-08-01 16:17:00,
2013-08-01 12:23:00,78.4,67.0,30.01,West,267,7.7,8.1,68,0.00,SCT,,0.00,WeatherDisplay:10.37,2013-08-01 16:23:00,
2013-08-01 12:28:00,78.6,67.6,30.01,NW,312,3.8,3.8,69,0.00,SCT,,0.00,WeatherDisplay:10.37,2013-08-01 16:28:00,
2013-08-01 12:33:00,79.2,67.3,30.01,NNW,335,8.2,9.2,67,0.00,SCT,,0.00,WeatherDisplay:10.37,2013-08-01 16:33:00,
2013-08-01 12:38:00,79.0,67.1,30.02,NNE,19,2.6,5.8,67,0.00,SCT,,0.00,WeatherDisplay:10.37,2013-08-01 16:38:00,
2013-08-01 12:44:00,79.5,67.2,30.02,NNW,335,5.7,9.2,66,0.00,SCT,,0.00,WeatherDisplay:10.37,2013-08-01 16:44:00,
2013-08-01 12:50:00,79.5,65.8,30.02,NNE,19,2.7,9.2,63,0.00,SCT,,0.00,WeatherDisplay:10.37,2013-08-01 16:50:00,
2013-08-01 12:56:00,79.9,67.1,30.02,WNW,289,3.8,3.8,65,0.00,SCT,,0.00,WeatherDisplay:10.37,2013-08-01 16:56:00,
2013-08-01 13:02:00,80.4,65.7,30.02,North,357,4.7,4.7,61,0.00,SCT,,0.00,WeatherDisplay:10.37,2013-08-01 17:02:00,
2013-08-01 13:08:00,80.8,66.5,30.01,NW,312,4.1,7.2,62,0.00,SCT,,0.00,WeatherDisplay:10.37,2013-08-01 17:08:00,
2013-08-01 13:13:00,81.5,67.2,30.01,NNW,335,13.6,13.8,62,0.00,BKN,,0.00,WeatherDisplay:10.37,2013-08-01 17:13:00,
2013-08-01 13:18:00,81.7,66.4,30.01,NW,312,3.3,3.5,60,0.00,BKN,,0.00,WeatherDisplay:10.37,2013-08-01 17:18:00,
2013-08-01 13:23:00,81.7,66.4,30.01,North,357,0.6,2.3,60,0.00,BKN,,0.00,WeatherDisplay:10.37,2013-08-01 17:23:00,
2013-08-01 13:28:00,81.9,66.1,30.01,North,357,2.9,4.6,59,0.00,BKN,,0.00,WeatherDisplay:10.37,2013-08-01 17:28:00,
2013-08-01 13:34:00,82.0,66.8,30.00,North,357,4.0,4.0,60,0.00,BKN,,0.00,WeatherDisplay:10.37,2013-08-01 17:34:00,
2013-08-01 13:39:00,81.9,66.1,30.00,NNW,335,5.6,8.1,59,0.00,BKN,,0.00,WeatherDisplay:10.37,2013-08-01 17:39:00,
2013-08-01 13:44:00,81.7,66.0,30.01,NNE,19,0.4,5.8,59,0.00,BKN,,0.00,WeatherDisplay:10.37,2013-08-01 17:44:00,
2013-08-01 13:49:00,81.1,65.5,30.01,NW,312,2.6,2.7,59,0.00,BKN,,0.00,WeatherDisplay:10.37,2013-08-01 17:49:00,
2013-08-01 13:54:00,81.5,66.3,30.00,SW,222,0.0,0.0,60,0.00,BKN,,0.00,WeatherDisplay:10.37,2013-08-01 17:54:00,
2013-08-01 13:59:00,82.9,67.6,30.00,NW,312,2.4,2.5,60,0.00,BKN,,0.00,WeatherDisplay:10.37,2013-08-01 17:59:00,
2013-08-01 14:05:00,82.9,67.1,30.00,NNW,335,4.5,4.6,59,0.00,BKN,,0.00,WeatherDisplay:10.37,2013-08-01 18:05:00,
2013-08-01 14:11:00,82.2,66.0,30.00,NNW,335,7.3,8.5,58,0.00,SCT,,0.00,WeatherDisplay:10.37,2013-08-01 18:11:00,
2013-08-01 14:17:00,81.3,65.1,30.00,NW,312,3.1,4.6,58,0.00,SCT,,0.00,WeatherDisplay:10.37,2013-08-01 18:17:00,
2013-08-01 14:22:00,81.1,65.9,30.00,NNW,335,2.7,4.9,60,0.00,SCT,,0.00,WeatherDisplay:10.37,2013-08-01 18:22:00,
2013-08-01 14:27:00,82.0,66.3,30.00,WNW,289,6.6,9.2,59,0.00,SCT,,0.00,WeatherDisplay:10.37,2013-08-01 18:27:00,
2013-08-01 14:32:00,82.0,65.8,30.00,NNW,335,15.0,15.0,58,0.00,SCT,,0.00,WeatherDisplay:10.37,2013-08-01 18:32:00,
2013-08-01 14:38:00,82.6,66.3,30.00,West,267,5.6,5.8,58,0.00,SCT,,0.00,WeatherDisplay:10.37,2013-08-01 18:38:00,
2013-08-01 14:44:00,83.5,66.6,30.00,West,267,5.7,6.9,57,0.00,SCT,,0.00,WeatherDisplay:10.37,2013-08-01 18:44:00,
2013-08-01 14:49:00,83.8,66.5,30.00,WSW,245,3.4,4.6,56,0.00,SCT,,0.00,WeatherDisplay:10.37,2013-08-01 18:49:00,
2013-08-01 14:55:00,83.5,66.1,30.00,NNW,335,3.8,5.8,56,0.00,SCT,,0.00,WeatherDisplay:10.37,2013-08-01 18:55:00,
2013-08-01 15:00:00,83.5,66.6,30.00,WNW,289,3.6,4.6,57,0.00,SCT,,0.00,WeatherDisplay:10.37,2013-08-01 19:00:00,
2013-08-01 15:05:00,84.0,67.1,29.99,WNW,289,3.0,3.6,57,0.00,SCT,,0.00,WeatherDisplay:10.37,2013-08-01 19:05:00,
2013-08-01 15:12:00,84.4,67.5,29.99,West,267,4.4,4.7,57,0.00,BKN,,0.00,WeatherDisplay:10.37,2013-08-01 19:12:00,
2013-08-01 15:18:00,85.3,68.3,29.99,NNW,335,6.9,6.9,57,0.00,BKN,,0.00,WeatherDisplay:10.37,2013-08-01 19:18:00,
2013-08-01 15:23:00,84.4,65.9,29.99,WNW,289,8.9,9.2,54,0.00,BKN,,0.00,WeatherDisplay:10.37,2013-08-01 19:23:00,
2013-08-01 15:29:00,84.2,66.3,29.99,North,357,2.5,5.4,55,0.00,BKN,,0.00,WeatherDisplay:10.37,2013-08-01 19:29:00,
2013-08-01 15:34:00,84.2,66.8,29.99,West,267,3.6,5.8,56,0.00,BKN,,0.00,WeatherDisplay:10.37,2013-08-01 19:34:00,
2013-08-01 15:39:00,84.9,67.5,29.98,WSW,245,4.9,4.9,56,0.00,BKN,,0.00,WeatherDisplay:10.37,2013-08-01 19:39:00,
2013-08-01 15:45:00,84.7,66.8,29.99,NE,42,0.9,3.1,55,0.00,BKN,,0.00,WeatherDisplay:10.37,2013-08-01 19:45:00,
2013-08-01 15:52:00,84.0,66.1,29.99,NNW,335,3.1,3.5,55,0.00,BKN,,0.00,WeatherDisplay:10.37,2013-08-01 19:52:00,
2013-08-01 15:57:00,83.3,65.4,29.99,NW,312,4.7,5.1,55,0.00,BKN,,0.00,WeatherDisplay:10.37,2013-08-01 19:57:00,
2013-08-01 16:02:00,83.5,65.6,29.98,NW,312,7.2,7.2,55,0.00,BKN,,0.00,WeatherDisplay:10.37,2013-08-01 20:02:00,
2013-08-01 16:08:00,84.0,66.1,29.98,WNW,289,5.4,5.8,55,0.00,BKN,,0.00,WeatherDisplay:10.37,2013-08-01 20:08:00,
2013-08-01 16:14:00,84.7,66.3,29.98,WSW,245,3.4,3.6,54,0.00,BKN,,0.00,WeatherDisplay:10.37,2013-08-01 20:14:00,
2013-08-01 16:19:00,84.9,66.4,29.98,NW,312,5.6,5.8,54,0.00,BKN,,0.00,WeatherDisplay:10.37,2013-08-01 20:19:00,
2013-08-01 16:24:00,83.8,65.4,29.98,NNW,335,7.1,8.3,54,0.00,BKN,,0.00,WeatherDisplay:10.37,2013-08-01 20:24:00,
2013-08-01 16:29:00,82.8,64.9,29.98,NNW,335,6.3,6.3,55,0.00,BKN,,0.00,WeatherDisplay:10.37,2013-08-01 20:29:00,
2013-08-01 16:35:00,82.2,65.0,29.98,NNW,335,8.3,8.3,56,0.00,BKN,,0.00,WeatherDisplay:10.37,2013-08-01 20:35:00,
2013-08-01 16:40:00,83.1,65.8,29.97,NNW,335,4.8,5.8,56,0.00,BKN,,0.00,WeatherDisplay:10.37,2013-08-01 20:40:00,
2013-08-01 16:41:00,83.1,65.8,29.97,NNW,332,6.0,0.0,56,0.00,BKN,,0.00,WeatherDisplay:10.37,2013-08-01 20:41:00,
2013-08-01 16:46:00,83.3,65.4,29.98,NW,312,6.0,6.0,55,0.00,BKN,,0.00,WeatherDisplay:10.37,2013-08-01 20:46:00,
2013-08-01 16:51:00,82.8,64.9,29.98,NNW,335,7.7,10.9,55,0.00,BKN,,0.00,WeatherDisplay:10.37,2013-08-01 20:51:00,
2013-08-01 16:57:00,82.0,65.3,29.98,West,267,3.1,6.9,57,0.00,BKN,,0.00,WeatherDisplay:10.37,2013-08-01 20:57:00,
2013-08-01 17:02:00,81.5,64.8,29.98,NW,312,8.7,9.2,57,0.00,BKN,,0.00,WeatherDisplay:10.37,2013-08-01 21:02:00,
2013-08-01 17:07:00,81.3,65.1,29.97,North,357,3.1,3.5,58,0.00,BKN,,0.00,WeatherDisplay:10.37,2013-08-01 21:07:00,
2013-08-01 17:12:00,82.0,65.3,29.98,WNW,289,7.0,12.7,57,0.00,FEW,,0.00,WeatherDisplay:10.37,2013-08-01 21:12:00,
2013-08-01 17:17:00,82.2,64.4,29.97,West,267,3.8,12.7,55,0.00,FEW,,0.00,WeatherDisplay:10.37,2013-08-01 21:17:00,
2013-08-01 17:23:00,82.8,65.5,29.98,NW,312,6.5,6.9,56,0.00,FEW,,0.00,WeatherDisplay:10.37,2013-08-01 21:23:00,
2013-08-01 17:28:00,83.5,64.5,29.98,NE,42,9.3,10.7,53,0.00,FEW,,0.00,WeatherDisplay:10.37,2013-08-01 21:28:00,
2013-08-01 17:34:00,83.5,63.4,29.98,NW,312,3.6,4.6,51,0.00,FEW,,0.00,WeatherDisplay:10.37,2013-08-01 21:34:00,
2013-08-01 17:39:00,83.5,63.4,29.98,WNW,289,5.5,9.4,51,0.00,FEW,,0.00,WeatherDisplay:10.37,2013-08-01 21:39:00,
2013-08-01 17:44:00,83.5,62.9,29.98,NW,312,8.2,9.4,50,0.00,FEW,,0.00,WeatherDisplay:10.37,2013-08-01 21:44:00,
2013-08-01 17:50:00,83.1,62.6,29.98,WNW,289,13.6,13.8,50,0.00,FEW,,0.00,WeatherDisplay:10.37,2013-08-01 21:50:00,
2013-08-01 17:55:00,82.9,63.0,29.97,NNW,335,6.9,10.4,51,0.00,FEW,,0.00,WeatherDisplay:10.37,2013-08-01 21:55:00,
2013-08-01 18:00:00,82.8,62.8,29.97,NW,312,8.3,8.3,51,0.00,FEW,,0.00,WeatherDisplay:10.37,2013-08-01 22:00:00,
2013-08-01 18:05:00,82.8,62.8,29.97,West,267,4.7,4.7,51,0.00,FEW,,0.00,WeatherDisplay:10.37,2013-08-01 22:05:00,
2013-08-01 18:10:00,82.6,62.1,29.97,NW,312,6.1,8.1,50,0.00,FEW,,0.00,WeatherDisplay:10.37,2013-08-01 22:10:00,
2013-08-01 18:15:00,82.6,62.6,29.98,NW,312,6.5,6.9,51,0.00,FEW,,0.00,WeatherDisplay:10.37,2013-08-01 22:15:00,
2013-08-01 18:20:00,82.6,62.6,29.97,NW,312,4.2,4.7,51,0.00,FEW,,0.00,WeatherDisplay:10.37,2013-08-01 22:20:00,
2013-08-01 18:25:00,82.6,62.6,29.97,NNW,335,6.5,6.9,51,0.00,FEW,,0.00,WeatherDisplay:10.37,2013-08-01 22:25:00,
2013-08-01 18:30:00,82.2,62.3,29.98,WSW,245,3.4,3.5,51,0.00,FEW,,0.00,WeatherDisplay:10.37,2013-08-01 22:30:00,
2013-08-01 18:35:00,82.2,62.3,29.98,West,267,9.2,9.8,51,0.00,FEW,,0.00,WeatherDisplay:10.37,2013-08-01 22:35:00,
2013-08-01 18:40:00,82.0,62.1,29.97,North,357,3.8,11.5,51,0.00,FEW,,0.00,WeatherDisplay:10.37,2013-08-01 22:40:00,
2013-08-01 18:45:00,81.9,62.5,29.97,NNW,335,1.6,2.3,52,0.00,FEW,,0.00,WeatherDisplay:10.37,2013-08-01 22:45:00,
2013-08-01 18:51:00,81.7,62.3,29.97,NW,315,6.0,0.0,52,0.00,FEW,,0.00,WeatherDisplay:10.37,2013-08-01 22:51:00,
2013-08-01 18:56:00,81.7,62.3,29.97,NW,312,6.9,6.9,52,0.00,FEW,,0.00,WeatherDisplay:10.37,2013-08-01 22:56:00,
2013-08-01 19:02:00,81.5,62.2,29.97,NNW,335,3.8,4.0,52,0.00,FEW,,0.00,WeatherDisplay:10.37,2013-08-01 23:02:00,
2013-08-01 19:07:00,81.3,62.0,29.97,WNW,289,0.0,4.6,52,0.00,FEW,,0.00,WeatherDisplay:10.37,2013-08-01 23:07:00,
2013-08-01 19:12:00,81.1,61.3,29.97,NW,312,4.1,4.9,51,0.00,CLR,,0.00,WeatherDisplay:10.37,2013-08-01 23:12:00,
2013-08-01 19:17:00,81.1,61.8,29.97,NW,312,4.7,4.7,52,0.00,CLR,,0.00,WeatherDisplay:10.37,2013-08-01 23:17:00,
2013-08-01 19:23:00,80.8,61.5,29.96,NNW,335,4.9,4.9,52,0.00,CLR,,0.00,WeatherDisplay:10.37,2013-08-01 23:23:00,
2013-08-01 19:29:00,80.8,61.5,29.96,NW,312,4.2,4.6,52,0.00,CLR,,0.00,WeatherDisplay:10.37,2013-08-01 23:29:00,
2013-08-01 19:34:00,80.2,61.0,29.97,NW,312,4.4,4.6,52,0.00,CLR,,0.00,WeatherDisplay:10.37,2013-08-01 23:34:00,
2013-08-01 19:39:00,79.9,61.2,29.97,NNW,335,4.2,4.6,53,0.00,CLR,,0.00,WeatherDisplay:10.37,2013-08-01 23:39:00,
2013-08-01 19:44:00,79.7,60.5,29.97,NNW,335,3.6,3.6,52,0.00,CLR,,0.00,WeatherDisplay:10.37,2013-08-01 23:44:00,
2013-08-01 19:49:00,79.5,60.9,29.96,NW,312,1.8,3.5,53,0.00,CLR,,0.00,WeatherDisplay:10.37,2013-08-01 23:49:00,
2013-08-01 19:55:00,79.3,60.7,29.96,NW,312,3.6,3.6,53,0.00,CLR,,0.00,WeatherDisplay:10.37,2013-08-01 23:55:00,
2013-08-01 20:00:00,79.2,60.6,29.97,NW,312,3.1,3.5,53,0.00,CLR,,0.00,WeatherDisplay:10.37,2013-08-02 00:00:00,
2013-08-01 20:05:00,79.0,60.4,29.97,NNW,335,2.0,2.3,53,0.00,CLR,,0.00,WeatherDisplay:10.37,2013-08-02 00:05:00,
2013-08-01 20:10:00,79.0,60.4,29.96,NNW,335,2.9,3.5,53,0.00,CLR,,0.00,WeatherDisplay:10.37,2013-08-02 00:10:00,
2013-08-01 20:15:00,78.6,60.6,29.97,NNW,335,1.6,1.6,54,0.00,CLR,,0.00,WeatherDisplay:10.37,2013-08-02 00:15:00,
2013-08-01 20:20:00,77.9,59.9,29.97,NNW,335,0.7,1.1,54,0.00,CLR,,0.00,WeatherDisplay:10.37,2013-08-02 00:20:00,
2013-08-01 20:25:00,77.9,60.4,29.96,NW,312,1.1,1.1,55,0.00,CLR,,0.00,WeatherDisplay:10.37,2013-08-02 00:25:00,
2013-08-01 20:30:00,77.5,60.1,29.97,NW,312,3.4,3.5,55,0.00,CLR,,0.00,WeatherDisplay:10.37,2013-08-02 00:30:00,
2013-08-01 20:35:00,76.8,59.9,29.97,NW,312,0.0,2.3,56,0.00,CLR,,0.00,WeatherDisplay:10.37,2013-08-02 00:35:00,
2013-08-01 20:41:00,76.3,59.9,29.97,West,267,0.0,2.3,57,0.00,CLR,,0.00,WeatherDisplay:10.37,2013-08-02 00:41:00,
2013-08-01 20:46:00,75.9,59.6,29.97,WNW,289,0.0,0.0,57,0.00,CLR,,0.00,WeatherDisplay:10.37,2013-08-02 00:46:00,
2013-08-01 20:51:00,75.4,59.1,29.97,WNW,283,0.0,0.0,57,0.00,CLR,,0.00,WeatherDisplay:10.37,2013-08-02 00:51:00,
2013-08-01 20:57:00,74.8,59.1,29.97,West,267,1.0,1.6,58,0.00,CLR,,0.00,WeatherDisplay:10.37,2013-08-02 00:57:00,
2013-08-01 21:02:00,74.5,59.2,29.97,NW,312,0.0,0.0,59,0.00,CLR,,0.00,WeatherDisplay:10.37,2013-08-02 01:02:00,
2013-08-01 21:07:00,74.1,58.9,29.97,WNW,289,1.5,1.5,59,0.00,CLR,,0.00,WeatherDisplay:10.37,2013-08-02 01:07:00,
2013-08-01 21:13:00,73.9,59.2,29.97,WNW,289,0.0,0.0,60,0.00,CLR,,0.00,WeatherDisplay:10.37,2013-08-02 01:13:00,
2013-08-01 21:18:00,73.6,58.8,29.98,SW,222,0.0,0.0,60,0.00,CLR,,0.00,WeatherDisplay:10.37,2013-08-02 01:18:00,
2013-08-01 21:23:00,73.2,59.0,29.98,WNW,289,0.0,0.0,61,0.00,CLR,,0.00,WeatherDisplay:10.37,2013-08-02 01:23:00,
2013-08-01 21:28:00,73.0,58.8,29.98,NNW,335,0.0,0.0,61,0.00,CLR,,0.00,WeatherDisplay:10.37,2013-08-02 01:28:00,
2013-08-01 21:34:00,72.7,58.9,29.98,NW,312,0.0,0.0,62,0.00,CLR,,0.00,WeatherDisplay:10.37,2013-08-02 01:34:00,
2013-08-01 21:39:00,72.5,58.7,29.99,NNW,335,1.1,1.1,62,0.00,CLR,,0.00,WeatherDisplay:10.37,2013-08-02 01:39:00,
2013-08-01 21:45:00,72.3,59.0,29.98,NW,312,0.0,0.0,63,0.00,CLR,,0.00,WeatherDisplay:10.37,2013-08-02 01:45:00,
2013-08-01 21:50:00,72.3,58.6,29.99,NW,312,0.0,0.0,62,0.00,CLR,,0.00,WeatherDisplay:10.37,2013-08-02 01:50:00,
2013-08-01 21:55:00,72.3,59.0,29.99,NW,312,1.6,1.6,63,0.00,CLR,,0.00,WeatherDisplay:10.37,2013-08-02 01:55:00,
2013-08-01 22:00:00,72.1,58.8,29.99,NW,312,0.0,0.0,63,0.00,CLR,,0.00,WeatherDisplay:10.37,2013-08-02 02:00:00,
2013-08-01 22:05:00,72.0,58.7,29.99,WNW,302,0.0,0.0,63,0.00,CLR,,0.00,WeatherDisplay:10.37,2013-08-02 02:05:00,
2013-08-01 22:11:00,72.0,58.7,29.99,WNW,289,1.6,1.6,63,0.00,CLR,,0.00,WeatherDisplay:10.37,2013-08-02 02:11:00,
2013-08-01 22:16:00,71.8,58.9,29.98,NW,312,0.0,0.0,64,0.00,CLR,,0.00,WeatherDisplay:10.37,2013-08-02 02:16:00,
2013-08-01 22:21:00,71.4,58.6,29.99,NW,309,1.0,0.0,64,0.00,CLR,,0.00,WeatherDisplay:10.37,2013-08-02 02:21:00,
2013-08-01 22:27:00,71.2,58.9,29.99,NW,312,2.6,2.7,65,0.00,CLR,,0.00,WeatherDisplay:10.37,2013-08-02 02:27:00,
2013-08-01 22:32:00,71.2,58.9,30.00,NW,312,3.6,3.6,65,0.00,CLR,,0.00,WeatherDisplay:10.37,2013-08-02 02:32:00,
2013-08-01 22:38:00,71.4,58.6,30.00,NW,312,0.0,0.0,64,0.00,CLR,,0.00,WeatherDisplay:10.37,2013-08-02 02:38:00,
2013-08-01 22:43:00,71.6,58.8,30.00,NW,312,0.0,0.0,64,0.00,CLR,,0.00,WeatherDisplay:10.37,2013-08-02 02:43:00,
2013-08-01 22:48:00,71.4,58.6,30.00,NNW,335,0.9,1.1,64,0.00,CLR,,0.00,WeatherDisplay:10.37,2013-08-02 02:48:00,
2013-08-01 22:53:00,71.4,58.6,30.00,West,267,0.0,0.0,64,0.00,CLR,,0.00,WeatherDisplay:10.37,2013-08-02 02:53:00,
2013-08-01 22:58:00,71.1,58.7,30.00,NNW,335,0.0,0.0,65,0.00,CLR,,0.00,WeatherDisplay:10.37,2013-08-02 02:58:00,
2013-08-01 23:03:00,70.9,58.5,30.00,NW,312,0.0,0.0,65,0.00,CLR,,0.00,WeatherDisplay:10.37,2013-08-02 03:03:00,
2013-08-01 23:09:00,70.7,58.8,30.00,West,267,0.0,0.0,66,0.00,CLR,,0.00,WeatherDisplay:10.37,2013-08-02 03:09:00,
2013-08-01 23:14:00,70.5,58.6,30.00,West,267,0.0,0.0,66,0.00,CLR,,0.00,WeatherDisplay:10.37,2013-08-02 03:14:00,
2013-08-01 23:19:00,70.3,58.4,29.99,NW,312,0.0,0.0,66,0.00,CLR,,0.00,WeatherDisplay:10.37,2013-08-02 03:19:00,
2013-08-01 23:24:00,70.0,58.5,30.00,NW,312,0.0,0.0,67,0.00,CLR,,0.00,WeatherDisplay:10.37,2013-08-02 03:24:00,
2013-08-01 23:30:00,69.6,58.2,30.00,NNW,335,0.0,0.0,67,0.00,CLR,,0.00,WeatherDisplay:10.37,2013-08-02 03:30:00,
2013-08-01 23:35:00,69.4,58.4,30.00,NW,312,0.0,0.0,68,0.00,CLR,,0.00,WeatherDisplay:10.37,2013-08-02 03:35:00,
2013-08-01 23:40:00,69.4,58.4,29.99,WNW,289,0.0,0.0,68,0.00,CLR,,0.00,WeatherDisplay:10.37,2013-08-02 03:40:00,
2013-08-01 23:45:00,69.6,58.6,29.99,WNW,289,0.0,0.0,68,0.00,CLR,,0.00,WeatherDisplay:10.37,2013-08-02 03:45:00,
2013-08-01 23:50:00,69.4,58.4,29.99,WNW,289,0.0,0.0,68,0.00,CLR,,0.00,WeatherDisplay:10.37,2013-08-02 03:50:00,
2013-08-01 23:55:00,69.1,58.5,30.00,NW,312,1.1,1.1,69,0.00,CLR,,0.00,WeatherDisplay:10.37,2013-08-02 03:55:00,